Location: Madrid
(40.4000°N, 3.6830°W)
Time: 21:10:15
(UTC+01:00)

ISS - Pass Details

Date: 25 March 2017
Orbit: 399 x 409 km, 51.6° (Epoch: 24 March)

Event Time Altitude Azimuth Distance (km) Brightness Sun altitude
Exits shadow 05:57:05 13° 196° (SSW) 1,314 -1.5 -14.5°
Drops below altitude 10° 05:57:41 10° 187° (S) 1,463 -1.2 -14.4°
Sets 06:00:16 0° 166° (SSE) 2,319 0.0 -13.9°
